AXM191 WMKP-WMKK

Flight info

Callsign AXM191
Flight time N/A
Altitude 27000
Route BOGUK DCT ANBIK Y507 KAKAK KAKAK1G
Aircraft A320/M-SDE3FGHIRWY/LB1

Departure

Time 2026-05-06 11:42
Airport Penang International Airport (WMKP)

Arrival

Time N/A
Airport Kuala Lumpur International Airport (WMKK)
Time Latitude Longitude Altitude Speed Heading
2026-05-06 11:08 5.29224 100.26645 23 ft 0 kts 311°
2026-05-06 11:33 5.29218 100.26653 23 ft 4 kts 310°
2026-05-06 11:34 5.29201 100.26674 23 ft 4 kts 308°
2026-05-06 11:34 5.29183 100.26694 23 ft 4 kts 319°
2026-05-06 11:34 5.29167 100.26707 24 ft 4 kts 313°
2026-05-06 11:34 5.29157 100.26725 25 ft 4 kts 243°
2026-05-06 11:35 5.29173 100.26742 23 ft 3 kts 222°
2026-05-06 11:35 5.29175 100.26745 23 ft 0 kts 222°
2026-05-06 11:37 5.29171 100.26741 25 ft 5 kts 223°
2026-05-06 11:37 5.29113 100.26687 24 ft 12 kts 222°
2026-05-06 11:37 5.29054 100.26635 24 ft 11 kts 221°
2026-05-06 11:38 5.29002 100.26589 24 ft 10 kts 221°
2026-05-06 11:38 5.28950 100.26542 24 ft 10 kts 221°
2026-05-06 11:38 5.28901 100.26498 24 ft 9 kts 221°
2026-05-06 11:38 5.28836 100.26500 24 ft 10 kts 139°
2026-05-06 11:39 5.28790 100.26549 24 ft 10 kts 129°
2026-05-06 11:39 5.28721 100.26576 23 ft 10 kts 169°
2026-05-06 11:39 5.28679 100.26598 23 ft 0 kts 131°
2026-05-06 11:40 5.28678 100.26598 26 ft 1 kts 131°
2026-05-06 11:40 5.28634 100.26650 25 ft 14 kts 131°
2026-05-06 11:40 5.28618 100.26680 23 ft 4 kts 92°
2026-05-06 11:40 5.28656 100.26724 23 ft 1 kts 44°
2026-05-06 11:41 5.28760 100.26819 24 ft 55 kts 42°
2026-05-06 11:41 5.29218 100.27234 24 ft 119 kts 42°
2026-05-06 11:41 5.29965 100.27913 27 ft 168 kts 42°
2026-05-06 11:42 5.30867 100.28722 566 ft 171 kts 41°
2026-05-06 11:42 5.31770 100.29530 1163 ft 180 kts 48°
2026-05-06 11:42 5.32369 100.30553 1999 ft 159 kts 76°
2026-05-06 11:42 5.32499 100.31598 2717 ft 148 kts 92°
2026-05-06 11:43 5.32425 100.32694 2931 ft 170 kts 97°
2026-05-06 11:43 5.32283 100.33949 3180 ft 191 kts 97°
2026-05-06 11:43 5.31857 100.35279 3425 ft 212 kts 124°
2026-05-06 11:44 5.29685 100.37736 4018 ft 259 kts 134°
2026-05-06 11:44 5.28383 100.39070 4536 ft 274 kts 134°
2026-05-06 11:44 5.26982 100.40495 4879 ft 296 kts 134°
2026-05-06 11:44 5.25539 100.42052 5310 ft 313 kts 129°
2026-05-06 11:45 5.24157 100.43808 5742 ft 329 kts 127°
2026-05-06 11:45 5.22755 100.45682 6182 ft 343 kts 126°
2026-05-06 11:45 5.21318 100.47646 6612 ft 356 kts 126°
2026-05-06 11:45 5.19835 100.49683 7044 ft 367 kts 126°
2026-05-06 11:46 5.18317 100.51758 7773 ft 365 kts 126°
2026-05-06 11:46 5.16852 100.53748 9124 ft 345 kts 126°
2026-05-06 11:46 5.15461 100.55627 10427 ft 329 kts 126°
2026-05-06 11:46 5.14067 100.57506 10800 ft 345 kts 126°
2026-05-06 11:47 5.12591 100.59491 10920 ft 365 kts 126°
2026-05-06 11:47 5.11041 100.61571 11185 ft 378 kts 126°
2026-05-06 11:47 5.09456 100.63697 11704 ft 383 kts 126°
2026-05-06 11:47 5.07856 100.65845 12295 ft 386 kts 126°
2026-05-06 11:48 5.06247 100.68011 12875 ft 388 kts 126°
2026-05-06 11:48 5.04626 100.70191 13418 ft 392 kts 126°
2026-05-06 11:48 5.02992 100.72388 13953 ft 394 kts 126°
2026-05-06 11:48 5.01346 100.74604 14471 ft 398 kts 126°
2026-05-06 11:49 4.99686 100.76835 14970 ft 401 kts 127°
2026-05-06 11:49 4.97796 100.78900 15431 ft 404 kts 138°
2026-05-06 11:49 4.95515 100.80564 15889 ft 408 kts 149°
2026-05-06 11:49 4.92930 100.81751 16324 ft 411 kts 161°
2026-05-06 11:50 4.90135 100.82412 16757 ft 415 kts 170°
2026-05-06 11:50 4.87271 100.82861 17182 ft 418 kts 170°
2026-05-06 11:50 4.84388 100.83313 17608 ft 421 kts 170°
2026-05-06 11:50 4.81487 100.83769 18027 ft 423 kts 170°
2026-05-06 11:51 4.78570 100.84228 18423 ft 426 kts 170°
2026-05-06 11:51 4.75635 100.84691 18804 ft 428 kts 170°
2026-05-06 11:51 4.72683 100.85156 19169 ft 431 kts 170°
2026-05-06 11:51 4.69716 100.85627 19540 ft 433 kts 170°
2026-05-06 11:52 4.66733 100.86102 19898 ft 435 kts 170°
2026-05-06 11:52 4.63734 100.86580 20251 ft 438 kts 170°
2026-05-06 11:52 4.60717 100.87058 20597 ft 440 kts 170°
2026-05-06 11:52 4.57684 100.87539 20934 ft 442 kts 170°
2026-05-06 11:53 4.54635 100.88019 21258 ft 445 kts 170°
2026-05-06 11:53 4.51572 100.88500 21574 ft 447 kts 170°
2026-05-06 11:53 4.48495 100.88987 21875 ft 449 kts 169°
2026-05-06 11:53 4.45469 100.89759 22156 ft 450 kts 160°
2026-05-06 11:54 4.42631 100.90971 22446 ft 450 kts 153°
2026-05-06 11:54 4.39811 100.92354 22728 ft 452 kts 153°
2026-05-06 11:54 4.36978 100.93742 22996 ft 454 kts 153°
2026-05-06 11:54 4.34131 100.95134 23252 ft 456 kts 153°
2026-05-06 11:55 4.31274 100.96531 23510 ft 458 kts 153°
2026-05-06 11:55 4.28402 100.97932 23754 ft 460 kts 153°
2026-05-06 11:55 4.25522 100.99329 23812 ft 460 kts 154°
2026-05-06 11:55 4.22641 101.00726 23812 ft 460 kts 153°
2026-05-06 11:56 4.19761 101.02124 23814 ft 460 kts 153°
2026-05-06 11:56 4.16883 101.03527 23811 ft 460 kts 153°
2026-05-06 11:56 4.14009 101.04930 23813 ft 460 kts 153°
2026-05-06 11:56 4.11137 101.06334 23814 ft 459 kts 153°
2026-05-06 11:57 4.08263 101.07734 23816 ft 459 kts 153°
2026-05-06 11:57 4.05387 101.09130 23810 ft 459 kts 153°
2026-05-06 11:57 4.02512 101.10524 23809 ft 459 kts 153°
2026-05-06 11:57 3.99638 101.11922 23815 ft 459 kts 153°
2026-05-06 11:58 3.96762 101.13320 23811 ft 459 kts 153°
2026-05-06 11:58 3.93888 101.14719 23814 ft 459 kts 153°
2026-05-06 11:58 3.91021 101.16119 23799 ft 456 kts 153°
2026-05-06 11:58 3.88190 101.17499 23813 ft 449 kts 153°
2026-05-06 11:59 3.85394 101.18857 23815 ft 444 kts 153°
2026-05-06 11:59 3.82642 101.20190 23809 ft 429 kts 153°
2026-05-06 11:59 3.80054 101.21439 23814 ft 397 kts 153°
2026-05-06 11:59 3.77658 101.22598 23807 ft 369 kts 153°
2026-05-06 12:00 3.75358 101.23505 23814 ft 344 kts 166°
2026-05-06 12:00 3.73015 101.23733 23814 ft 337 kts 183°
2026-05-06 12:00 3.70729 101.23264 23811 ft 336 kts 201°
2026-05-06 12:00 3.68689 101.22127 23811 ft 338 kts 219°
2026-05-06 12:01 3.67081 101.20420 23813 ft 339 kts 236°
2026-05-06 12:01 3.66059 101.18297 23812 ft 340 kts 254°
2026-05-06 12:01 3.65717 101.15965 23815 ft 340 kts 272°
2026-05-06 12:01 3.66081 101.13635 23814 ft 340 kts 289°
2026-05-06 12:02 3.67113 101.11516 23811 ft 339 kts 307°
2026-05-06 12:02 3.68703 101.09829 23812 ft 338 kts 324°
2026-05-06 12:02 3.70717 101.08557 23814 ft 338 kts 332°
2026-05-06 12:02 3.72773 101.07474 23811 ft 338 kts 334°
2026-05-06 12:03 3.74920 101.06436 23815 ft 338 kts 335°
2026-05-06 12:03 3.77022 101.05450 23815 ft 338 kts 336°
2026-05-06 12:03 3.79151 101.04447 23813 ft 339 kts 336°
2026-05-06 12:03 3.81415 101.03739 23810 ft 336 kts 354°
2026-05-06 12:04 3.83739 101.03723 23815 ft 334 kts 11°
2026-05-06 12:04 3.85953 101.04375 23815 ft 332 kts 27°
2026-05-06 12:04 3.87873 101.05633 23813 ft 330 kts 44°
2026-05-06 12:04 3.89324 101.07361 23813 ft 329 kts 61°
2026-05-06 12:05 3.90213 101.09455 23812 ft 328 kts 78°
2026-05-06 12:05 3.90449 101.11712 23812 ft 327 kts 94°
2026-05-06 12:05 3.90031 101.13945 23811 ft 327 kts 110°
2026-05-06 12:05 3.88995 101.15970 23816 ft 328 kts 127°
2026-05-06 12:06 3.87419 101.17613 23812 ft 329 kts 143°
2026-05-06 12:06 3.85483 101.18840 23812 ft 330 kts 150°
2026-05-06 12:06 3.83449 101.19915 23815 ft 331 kts 153°
2026-05-06 12:06 3.81379 101.20916 23815 ft 331 kts 154°
2026-05-06 12:07 3.79296 101.21895 23812 ft 331 kts 154°
2026-05-06 12:07 3.77217 101.22878 23811 ft 330 kts 154°
2026-05-06 12:07 3.75031 101.23565 23810 ft 331 kts 173°
2026-05-06 12:07 3.72734 101.23439 23812 ft 333 kts 194°
2026-05-06 12:08 3.71294 101.22906 23812 ft 335 kts 208°
2026-05-06 12:08 3.69459 101.21478 23816 ft 337 kts 230°
2026-05-06 12:08 3.68053 101.18703 23813 ft 338 kts 259°
2026-05-06 12:08 3.67914 101.17150 23764 ft 340 kts 273°
2026-05-06 12:09 3.68434 101.14857 23480 ft 337 kts 296°
2026-05-06 12:09 3.69733 101.12953 23227 ft 329 kts 317°
2026-05-06 12:09 3.71573 101.11625 22981 ft 326 kts 331°
2026-05-06 12:09 3.73648 101.10763 22723 ft 321 kts 352°
2026-05-06 12:10 3.75855 101.10750 22471 ft 317 kts 13°
2026-05-06 12:10 3.77912 101.11485 22220 ft 314 kts 32°
2026-05-06 12:10 3.79598 101.12838 21980 ft 310 kts 51°
2026-05-06 12:10 3.80720 101.14660 21725 ft 307 kts 71°
2026-05-06 12:11 3.81159 101.16736 21472 ft 305 kts 90°
2026-05-06 12:11 3.80887 101.18829 21223 ft 304 kts 108°
2026-05-06 12:11 3.79949 101.20708 20972 ft 303 kts 127°
2026-05-06 12:11 3.78443 101.22164 20720 ft 302 kts 146°
2026-05-06 12:12 3.76610 101.23336 20477 ft 327 kts 142°
2026-05-06 12:12 3.74802 101.24862 20234 ft 353 kts 135°
2026-05-06 12:12 3.73027 101.26687 19978 ft 378 kts 132°
2026-05-06 12:12 3.71223 101.28714 19720 ft 402 kts 130°
2026-05-06 12:13 3.69340 101.30881 19463 ft 423 kts 130°
2026-05-06 12:13 3.67357 101.33138 19211 ft 441 kts 131°
2026-05-06 12:13 3.65270 101.35451 18955 ft 452 kts 132°
2026-05-06 12:13 3.63128 101.37766 18705 ft 454 kts 132°
2026-05-06 12:14 3.60966 101.40064 18463 ft 453 kts 133°
2026-05-06 12:14 3.58800 101.42342 18209 ft 451 kts 133°
2026-05-06 12:14 3.56636 101.44615 17956 ft 450 kts 133°
2026-05-06 12:14 3.54491 101.46881 17772 ft 447 kts 133°
2026-05-06 12:15 3.52352 101.49150 17819 ft 449 kts 133°
2026-05-06 12:15 3.50214 101.51423 17811 ft 448 kts 133°
2026-05-06 12:15 3.48078 101.53698 17814 ft 449 kts 133°
2026-05-06 12:15 3.45944 101.55971 17819 ft 448 kts 133°
2026-05-06 12:16 3.43806 101.58257 17819 ft 448 kts 132°
2026-05-06 12:16 3.41688 101.60531 17810 ft 447 kts 132°
2026-05-06 12:16 3.39561 101.62806 17813 ft 448 kts 133°
2026-05-06 12:16 3.37428 101.65082 17814 ft 448 kts 133°
2026-05-06 12:17 3.35291 101.67355 17813 ft 448 kts 133°
2026-05-06 12:17 3.33151 101.69627 17813 ft 448 kts 133°
2026-05-06 12:17 3.31012 101.71896 17813 ft 448 kts 133°
2026-05-06 12:17 3.28905 101.74133 17811 ft 444 kts 133°
2026-05-06 12:18 3.26845 101.76329 17812 ft 422 kts 132°
2026-05-06 12:18 3.24950 101.78477 17811 ft 402 kts 130°
2026-05-06 12:18 3.23212 101.80582 17821 ft 384 kts 128°
2026-05-06 12:18 3.21591 101.82627 17810 ft 367 kts 127°
2026-05-06 12:19 3.20041 101.84590 17811 ft 351 kts 128°
2026-05-06 12:19 3.18551 101.86465 17812 ft 338 kts 128°
2026-05-06 12:19 3.17087 101.88284 17812 ft 334 kts 128°
2026-05-06 12:19 3.15622 101.90081 17814 ft 333 kts 128°
2026-05-06 12:20 3.14223 101.91925 17814 ft 332 kts 121°
2026-05-06 12:20 3.13219 101.94003 17670 ft 332 kts 108°
2026-05-06 12:20 3.12489 101.96185 17431 ft 330 kts 108°
2026-05-06 12:20 3.11755 101.98352 17167 ft 328 kts 110°
2026-05-06 12:21 3.10725 102.00394 16911 ft 327 kts 122°
2026-05-06 12:21 3.09462 102.02287 16663 ft 327 kts 123°
2026-05-06 12:21 3.08200 102.04179 16412 ft 326 kts 123°
2026-05-06 12:21 3.06778 102.05935 16159 ft 325 kts 135°